User: anonymous   Login
Location: Newark
(53.3333°N, 83.7500°E)
Time: 13:31:29
(UTC+00:00)
Language:

ISS - Orbit

View from above orbital plane
View from above orbital plane
View from above satellite
View from above satellite

Ground track
Ground track

The orbit data is extracted from the following two-line orbital elements,

1 25544U 98067A   19325.62313292  .00016717  00000-0  10270-3 0  9094
2 25544  51.6407 300.7368 0006735 308.1666  51.8877 15.49992365 39677
Epoch (UTC): 21 November 2019 14:57:18
Eccentricity: 0.0006735
inclination: 51.6407°
perigee height: 412 km
apogee height: 421 km
right ascension of ascending node: 300.7368°
argument of perigee: 308.1666°
revolutions per day: 15.49992365
mean anomaly at epoch: 51.8877°
orbit number at epoch: 3967

The dashed part of the orbit path shows where the satellite is in the earth's shadow,  

DLR